Terminal Aerodrome Forecast
Issued by NWS Miami, FL

Home | Current Version | Previous Version | Text Only | Print | Product List | Glossary On
Versions: 1 2 3 4 5 6 7 8 9 10 11 12 13 14 15 16 17 18 19 20 21 22 23 24 25 26 27 28 29 30 31 32 33 34 35 36 37 38 39 40 41 42 43 44 45 46 47 48 49 50
000
FTUS42 KMFL 280254 AAA
TAFPBI
TAF AMD
KPBI 280254Z 2803/2824 VRB03KT P6SM FEW030 BKN150
     FM280800 17003KT P6SM VCSH BKN050
     FM281600 13008KT P6SM VCTS SCT025CB BKN070=

USA.gov is the U.S. government's official web portal to all federal, state and local government web resources and services.